Tracking 19219 objects as of 21-Jul-2018
HD Live streaming from Space Station
objects crossing your sky now

CHUBUSAT-1

Track CHUBUSAT-1 now!
10-day predictions
CHUBUSAT-1 is classified as:


NORAD ID: 40300
Int'l Code: 2014-070C
Perigee: 493.7 km
Apogee: 522.5 km
Inclination: 97.4 °
Period: 94.6 minutes
Semi major axis: 6879 km
RCS: Unknown
Launch date: November 6, 2014
Source: Japan (JPN)
Launch site: Orenburg, Russia (OREN)
Uplink (MHz): 145.980
Downlink (MHz): 437.485
Beacon (MHz): 437.485
Mode: 1200bps 9600bps CW
Call sign: JJ2YJY
Status: Inactive


CHUBUSAT-1 is a 110-pound (50-kg) satellite that was designed by Nagoya University in Japan and carries optical and infrared cameras to observe Earth and space debris.
aabbcc
Your satellite tracking list
Your tracking list is empty




NASA's NSSDC Master Catalog

Two Line Element Set (TLE):
1 40300U 14070C   18202.27823186  .00000587  00000-0  28917-4 0  9990
2 40300  97.3612 279.2437 0020910 139.8608 263.6625 15.21627257205463
Source of the keplerian elements: Caltech